Location: Avully
(45.9633°N, 6.0228°E)
Time: 17:26:50
(UTC+00:00)

FALCON 9 DEB - Visible Passes

Search period start: 07 October 2024 00:00
Search period end: 17 October 2024 00:00
Orbit: 389 x 1003 km, 53.2° (Epoch: 06 October)

Date Brightness Start Highest point End Pass type
(mag) Time Alt. Az. Time Alt. Az. Time Alt. Az.
07 Oct ? 01:47:00 34° ENE 01:47:00 34° ENE 01:50:59 10° E visible
07 Oct ? 03:25:45 45° WNW 03:27:54 75° SW 03:34:36 10° SE visible
07 Oct ? 05:05:18 10° WNW 05:10:19 23° SW 05:15:18 10° S visible
08 Oct ? 00:49:40 10° E 00:49:40 10° E 00:49:41 10° E visible
08 Oct ? 02:28:26 59° E 02:28:26 59° E 02:33:51 10° ESE visible
08 Oct ? 04:07:12 27° W 04:09:58 38° SW 04:16:02 10° SSE visible
09 Oct ? 01:31:16 17° E 01:31:16 17° E 01:32:44 10° E visible
09 Oct ? 03:10:03 57° SSW 03:10:03 57° SSW 03:15:58 10° SE visible
09 Oct ? 04:48:50 13° W 04:51:32 17° WSW 04:55:31 10° SSW visible
10 Oct ? 02:13:02 23° SE 02:13:02 23° SE 02:15:21 10° SE visible
10 Oct ? 03:51:50 29° SW 03:51:50 29° SW 03:56:49 10° S visible
11 Oct ? 02:54:56 21° SSE 02:54:56 21° SSE 02:57:02 10° SSE visible
11 Oct ? 04:33:44 11° SW 04:33:44 11° SW 04:34:39 10° SW visible
11 Oct ? 18:52:19 10° SSW 18:54:41 25° SSE 18:54:41 25° SSE visible
12 Oct ? 03:36:55 11° S 03:36:55 11° S 03:37:10 10° S visible
12 Oct ? 17:53:23 10° SSE 17:56:09 16° ESE 17:57:14 15° ESE visible
12 Oct ? 19:33:24 10° SW 19:35:59 35° SW 19:35:59 35° SW visible
13 Oct ? 18:33:12 10° SSW 18:37:25 44° SE 18:38:17 40° ESE visible
13 Oct ? 20:15:25 10° W 20:17:01 21° W 20:17:01 21° W visible
14 Oct ? 17:33:38 10° S 17:37:00 23° SE 17:40:24 12° E visible
14 Oct ? 19:14:36 10° WSW 19:19:07 82° NW 19:19:07 82° NW visible
14 Oct ? 20:57:49 10° WNW 20:57:50 10° WNW 20:57:50 10° WNW visible
15 Oct ? 18:14:06 10° SW 18:18:22 60° SE 18:21:03 26° ENE visible
15 Oct ? 19:56:45 10° W 19:59:46 35° WNW 19:59:46 35° WNW visible
16 Oct ? 17:14:05 10° SSW 17:17:47 31° SE 17:22:09 10° ENE visible
16 Oct ? 18:55:45 10° WSW 19:00:15 66° NNW 19:01:32 48° NE visible
16 Oct ? 20:39:06 10° WNW 20:40:13 17° WNW 20:40:13 17° WNW visible
